Regional Weather Roundup
Issued by NWS

Home | Current Version | Previous Version | Text Only | Print | Product List | Glossary On
Versions: 1 2 3 4 5 6 7 8 9 10 11 12 13 14 15 16 17 18 19 20 21 22 23 24 25 26 27 28 29 30 31 32 33 34 35 36 37 38 39 40 41 42 43 44 45 46 47 48 49 50
000
ASUS45 KREV 251910
RWRNV
NEVADA REGIONAL WEATHER ROUNDUP
NATIONAL WEATHER SERVICE RENO NV
1200 PM PDT SUN SEP 25 2016

NOTE: "FAIR" INDICATES FEW OR NO CLOUDS BELOW 12,000 FEET WITH NO
SIGNIFICANT WEATHER AND/OR OBSTRUCTIONS TO VISIBILITY.

NVZ001-003-004-252000-
WESTERN NEVADA

CITY           SKY/WX    TMP DP  RH WIND       PRES   REMARKS
RENO           MOSUNNY   74  24  15 W3        30.43F
CARSON CITY    FAIR      73  21  14 E9G16     30.46F
MINDEN         FAIR      72  23  16 N7        30.45F
PYRAMID LAKE     N/A     66 N/A N/A NE3         N/A
FALLON         MOSUNNY   73  27  18 VRB5      30.43
LOVELOCK       SUNNY     74  21  13 MISG      30.42F
$$

NVZ002-CAZ072-073-252000-
NORTHERN AND CENTRAL SIERRA

CITY           SKY/WX    TMP DP  RH WIND       PRES   REMARKS
S. LAKE TAHOE  SUNNY     70  18  13 NE10G22   30.46F
TRUCKEE        SUNNY     70  23  17 N3        30.47F
SQUAW VLY 8000 NOT AVBL
MAMMOTH LAKES  FAIR      71  16  12 SW3       30.51F
BRIDGEPORT       N/A     71  15  11 VRB5      30.47F
$$

NVZ030-031-036-252000-
NORTHERN NEVADA

CITY           SKY/WX    TMP DP  RH WIND       PRES   REMARKS
ELKO           SUNNY     65  25  22 NE5       30.49F
WINNEMUCCA     SUNNY     72  18  13 N10G17    30.45F
WENDOVER       SUNNY     64  37  36 S7        30.49F
$$

NVZ035-037-252000-
CENTRAL NEVADA

CITY           SKY/WX    TMP DP  RH WIND       PRES   REMARKS
ELY            SUNNY     63  28  26 N17G24    30.50F
EUREKA           N/A     65  24  21 N8        30.50F
$$

NVZ013-014-252000-
SOUTH CENTRAL NEVADA

CITY           SKY/WX    TMP DP  RH WIND       PRES   REMARKS
TONOPAH        SUNNY     75  18  11 N8G21     30.42F
$$

NVZ017-020-022-252000-
SOUTHERN NEVADA

CITY           SKY/WX    TMP DP  RH WIND       PRES   REMARKS
LAS VEGAS      SUNNY     82  28  14 NE22G29   30.24F
N. LAS VEGAS   SUNNY     82  29  14 E20       30.24F
NELLIS AFB     SUNNY     81  34  18 N21       30.23F
HENDERSON      SUNNY     79  32  18 N17G25    30.27F
MERCURY        SUNNY     81  23  11 NE20G26   30.27F
$$



USA.gov is the U.S. government's official web portal to all federal, state and local government web resources and services.